Location: Newark
(39.0622°N, 106.5590°E)
Time: 22:09:13
(UTC+00:00)

Vanguard 2 Rocket - Pass Details

Date: 02 February 2020
Orbit: 554 x 3327 km, 32.9° (Epoch: 19 February)

Event Time Altitude Azimuth Distance (km) Brightness Sun altitude
Rises 00:02:46 0° 263° (W) 2,884 8.9 -0.4°
Reaches altitude 10° 00:05:07 10° 248° (WSW) 2,137 8.4 0.0°
Maximum altitude 00:09:01 24° 194° (SSW) 1,708 8.5 0.7°
Drops below altitude 10° 00:14:26 10° 144° (SE) 3,073 10.8 1.7°
Sets 00:18:39 0° 132° (SE) 4,536 12.2 2.5°
